GEFSMA_500_meanwind_012.txt.gz
Wind_Speed
14 14 13 13 14 15 17 19 20 21 23 23 23 21 18 17 18 19 20 19 18 17 18 19 19 19 17 16 15 14 14 14 15 14 14 14 14 15 15 16 17 17 17
18 17 16 16 17 18 20 21 23 23 24 24 24 23 21 19 19 20 21 22 21 19 19 20 20 20 20 19 18 16 15 16 16 16 16 15 14 15 17 17 18 18 18
21 21 21 20 21 22 23 24 25 25 26 26 26 25 25 23 22 22 22 23 23 22 22 22 22 22 22 21 21 20 18 17 17 18 18 18 16 16 17 18 18 19 20
25 24 24 24 24 25 26 27 27 27 28 28 28 28 27 26 25 24 24 24 25 25 25 25 26 25 24 23 23 22 21 19 19 19 20 20 18 18 18 19 20 20 20
29 28 27 28 28 28 29 30 30 31 31 32 31 30 30 29 28 26 25 26 27 28 27 27 27 27 26 25 24 23 22 21 20 21 21 20 19 19 19 20 21 21 20
34 32 31 32 32 33 34 35 36 37 36 36 35 33 32 32 31 29 29 29 29 30 30 29 28 28 28 26 25 24 23 23 22 22 22 20 20 20 20 20 22 22 21
39 37 35 35 35 36 37 39 40 41 40 41 40 37 34 34 33 33 33 33 32 33 32 31 31 30 29 28 26 25 25 24 24 24 23 21 20 20 21 21 22 23 22
40 39 37 36 36 37 38 40 41 42 42 43 43 42 37 35 37 36 36 35 35 35 35 34 33 32 32 29 27 26 26 25 25 25 25 23 22 22 22 22 23 22 22
39 38 36 34 34 36 38 40 42 42 42 42 43 43 41 37 38 38 37 37 37 37 37 36 34 33 33 31 29 28 28 27 26 27 27 26 25 24 23 23 23 23 21
38 36 33 33 34 36 38 39 41 42 41 40 41 42 42 39 37 35 37 37 37 37 37 35 33 33 33 33 31 30 30 29 28 29 29 28 27 26 25 24 24 23 21
34 33 33 34 36 36 37 39 41 42 42 41 40 40 39 37 35 33 32 34 35 36 36 35 35 35 34 33 33 32 32 32 31 31 31 29 28 27 26 25 24 24 22
33 33 34 36 37 37 38 40 41 41 41 39 37 36 34 33 31 31 31 32 34 36 37 37 37 37 36 35 34 33 33 32 32 32 31 30 29 27 26 25 24 24 23
34 35 37 38 39 39 40 41 40 39 36 34 33 31 31 30 30 32 33 34 36 36 38 38 37 37 37 36 35 34 33 33 33 33 33 32 30 29 27 26 24 24 23
36 38 40 41 41 41 40 39 37 34 32 30 29 29 29 28 30 32 34 36 38 38 38 39 38 37 37 37 36 35 35 35 35 35 34 33 31 29 28 27 25 23 22
39 41 42 41 40 38 36 33 31 29 28 26 26 26 27 28 29 31 33 35 37 38 39 39 38 38 38 37 37 37 36 37 36 35 34 32 30 29 28 26 24 23 22
41 41 39 36 34 33 31 30 28 27 25 24 24 24 25 26 28 30 32 34 35 36 38 38 39 39 38 37 36 36 36 36 34 32 31 29 28 27 27 26 24 23 22
37 34 32 32 31 31 30 29 27 26 24 23 23 23 24 25 26 26 28 31 33 36 38 38 39 38 37 35 34 34 33 32 30 28 27 27 27 27 26 25 24 23 22
31 31 31 31 31 30 30 29 28 26 25 25 24 24 24 24 25 25 24 23 26 29 31 31 33 34 34 32 31 29 27 26 25 25 25 25 26 25 24 22 21 21 22
30 31 31 30 29 29 29 29 29 28 27 26 26 26 27 26 26 25 24 22 21 21 23 24 25 26 27 28 29 27 23 21 22 24 24 24 24 23 22 21 20 21 21
29 29 29 29 29 29 29 29 29 29 28 27 27 28 29 30 29 28 27 25 23 21 20 20 19 19 20 21 23 22 20 19 19 20 22 22 21 21 21 20 21 21 22
29 29 29 28 28 28 28 28 29 29 28 27 27 28 30 30 31 31 31 30 28 26 24 23 21 19 17 16 17 18 19 19 20 20 21 22 21 21 21 20 20 21 22
29 29 28 28 28 28 28 28 28 27 27 27 28 28 29 30 30 31 32 32 32 30 29 28 26 24 22 20 19 19 20 21 23 24 24 23 22 21 21 20 20 21 22
28 28 28 28 28 28 28 27 27 27 26 26 26 26 27 29 30 30 31 32 32 33 32 32 31 30 29 27 25 24 24 24 25 25 26 26 25 24 24 23 22 23 23
28 27 27 27 27 27 26 25 24 24 24 25 26 27 27 28 29 29 30 31 32 33 34 34 34 34 34 33 32 31 30 29 28 28 28 28 29 28 27 26 25 25 25
24 23 22 22 22 21 21 21 21 22 23 24 25 25 26 27 27 28 28 29 30 32 34 36 37 37 38 38 38 37 35 34 34 34 32 31 29 29 30 29 28 28 28
16 16 16 16 17 18 18 19 19 20 20 20 21 22 23 24 25 25 26 27 28 29 31 34 36 38 39 41 41 42 41 39 38 38 39 38 36 34 33 33 32 32 32

GEFSMA_500_meanwind_018.txt.gz
Wind_Speed
22 22 22 21 20 20 19 19 18 16 15 15 14 13 13 14 15 16 17 17 18 20 21 21 20 19 19 18 18 18 17 16 15 15 15 15 15 15 15 15 16 16 17
25 25 25 25 24 23 23 22 21 21 19 18 18 18 17 17 17 17 18 19 20 21 22 23 23 23 21 21 20 20 20 20 19 18 17 17 17 16 16 16 16 17 17
29 29 28 27 27 25 25 24 24 24 23 22 22 22 22 22 22 21 21 21 21 22 23 24 25 25 25 24 23 23 23 23 23 22 20 19 19 18 17 18 18 18 17
36 36 35 33 31 29 28 27 27 27 27 27 27 26 26 27 26 25 24 24 24 24 24 25 27 27 27 27 27 26 26 26 26 25 24 22 21 19 19 19 20 19 18
42 42 42 41 38 35 33 30 30 30 31 31 31 31 30 30 30 30 29 28 27 27 27 27 28 29 30 29 28 28 28 28 28 27 27 26 24 22 20 20 21 21 19
47 47 47 46 44 41 37 35 34 34 34 34 34 33 32 32 32 32 32 32 31 31 31 30 30 31 31 31 30 29 29 29 29 29 29 29 27 25 22 21 21 21 20
52 52 52 51 49 45 40 38 37 36 36 36 36 34 33 33 33 33 34 34 34 33 33 33 33 33 33 33 32 32 31 31 31 31 31 31 30 28 25 23 22 21 21
56 57 56 54 52 48 44 40 40 39 38 37 36 35 33 34 35 34 35 35 35 35 35 35 34 34 35 35 35 34 33 33 33 33 32 32 31 30 28 25 23 22 22
55 57 57 56 54 49 45 43 41 40 38 37 36 35 34 34 35 35 35 37 36 36 36 36 36 35 36 37 37 36 35 34 33 34 33 33 33 33 31 28 26 24 24
54 55 53 53 53 49 45 42 39 37 36 35 35 35 36 36 35 33 33 35 36 35 35 35 36 37 37 38 38 37 36 34 33 33 34 34 35 35 33 31 29 27 25
54 49 46 46 44 44 41 38 36 35 34 34 34 35 36 36 35 32 29 31 33 33 34 34 35 36 36 37 37 37 36 35 33 33 34 35 36 36 36 34 32 30 27
52 47 43 39 38 38 36 34 34 34 33 34 35 35 35 34 32 30 27 27 30 31 32 33 33 34 35 35 37 37 37 36 35 35 35 36 37 37 38 37 35 33 30
48 43 40 38 36 34 32 33 33 33 33 34 35 35 34 32 30 28 26 26 28 30 31 32 32 33 35 36 37 38 37 37 36 36 37 37 38 38 38 38 38 36 33
44 40 39 37 35 32 32 32 33 33 33 34 33 32 31 29 28 27 27 27 27 29 31 32 33 34 35 37 39 39 39 39 37 37 37 37 38 39 38 38 38 39 36
43 40 38 38 37 34 33 33 33 33 33 32 30 29 28 27 27 27 27 28 28 29 30 31 33 35 36 37 39 39 40 40 39 39 38 38 38 39 39 39 38 39 38
41 39 36 38 38 35 33 33 33 32 30 29 28 27 27 27 27 27 28 29 29 30 30 30 31 33 34 37 38 39 40 40 40 39 39 39 40 40 40 40 39 38 38
37 35 33 34 34 33 32 31 30 29 28 28 28 28 28 28 29 29 29 30 30 30 31 30 30 31 31 33 35 38 38 39 40 40 40 40 40 41 41 40 38 36 37
33 32 31 31 31 30 29 28 28 27 27 28 29 29 30 30 31 31 32 32 33 32 32 31 31 30 29 29 30 32 35 38 38 39 39 40 39 39 39 38 37 35 34
31 31 31 30 28 27 26 26 27 27 27 28 29 30 31 32 32 33 34 35 35 35 34 34 33 31 29 27 27 27 28 31 34 35 36 36 36 36 35 35 34 32 32
29 29 27 26 24 24 24 25 25 26 27 28 29 31 31 32 33 34 35 36 36 37 37 36 36 34 32 30 28 26 25 26 27 29 31 33 33 32 31 32 32 31 30
23 22 21 21 21 22 23 24 25 26 26 28 29 30 31 32 33 34 35 36 36 36 37 37 37 36 34 33 30 28 25 24 23 24 26 27 27 27 28 29 30 30 30
16 17 18 19 21 22 23 24 24 25 26 27 29 30 31 32 33 34 35 35 35 35 36 35 35 35 34 33 32 31 28 25 23 21 21 22 23 24 24 24 26 27 28
15 16 18 19 20 21 22 23 23 24 26 27 28 29 30 31 32 33 33 34 34 34 34 34 34 33 33 32 33 32 31 29 27 24 21 20 20 22 23 23 24 25 27
17 18 19 20 20 20 21 21 22 23 24 25 26 27 29 30 31 31 31 32 33 33 34 34 34 33 33 32 32 32 32 31 30 29 27 23 21 20 22 25 25 25 26
18 18 18 18 17 16 17 17 18 19 20 21 21 22 23 24 26 27 28 29 30 31 32 33 34 34 34 33 33 32 32 32 32 32 32 29 27 25 24 26 29 28 28
16 15 14 13 13 13 13 13 14 15 16 16 18 19 20 22 24 25 26 28 29 29 30 31 31 32 32 32 33 33 33 33 33 33 34 33 31 30 29 28 28 29 29

GEFSMA_500_meanwind_024.txt.gz
Wind_Speed
28 28 28 28 27 27 26 26 26 26 26 25 25 24 23 21 20 19 17 17 18 17 17 17 17 17 17 18 19 19 19 18 18 17 17 17 17 17 17 16 16 15 15
34 33 32 32 32 31 31 30 30 30 29 29 28 28 27 26 24 23 23 22 22 21 21 20 20 19 19 19 20 20 21 21 20 20 19 18 19 19 19 19 18 18 17
38 38 37 37 37 36 35 35 35 35 34 33 32 32 31 30 29 28 27 27 26 25 25 24 23 23 22 21 21 21 22 22 22 22 22 21 21 21 21 21 21 20 20
42 42 41 41 41 41 41 41 40 41 41 40 38 36 36 35 33 32 31 30 30 28 27 27 27 26 26 25 24 23 23 24 24 24 24 24 23 23 23 23 23 22 22
44 44 44 44 44 44 44 45 45 46 46 45 43 40 39 38 36 34 33 33 32 31 30 28 28 29 29 29 28 27 26 25 26 26 26 26 25 25 24 25 25 24 24
46 46 46 47 47 47 47 47 48 49 49 48 46 44 42 40 39 37 35 34 34 33 31 30 29 29 30 31 30 30 29 28 27 27 27 27 27 26 26 26 26 26 26
49 49 49 48 48 48 48 48 49 50 51 51 51 48 44 42 40 38 36 35 36 35 33 32 31 30 29 31 31 31 31 30 29 29 29 29 28 28 28 28 28 28 28
51 52 49 48 49 48 48 48 50 51 51 51 50 46 42 41 41 38 37 35 35 35 35 34 32 31 29 29 30 32 32 31 31 30 30 31 30 30 30 29 29 29 29
53 52 50 50 50 50 50 50 50 51 50 48 47 44 43 42 41 39 39 37 35 35 35 35 33 31 30 29 28 29 31 31 31 31 31 32 32 32 32 31 31 31 30
54 53 53 53 53 53 52 51 50 50 48 46 45 44 42 41 40 39 38 38 35 35 35 33 31 29 28 27 26 25 28 30 31 31 32 33 33 33 34 33 32 32 32
55 56 55 55 54 53 52 51 49 48 46 43 41 42 42 41 40 39 36 36 35 34 33 31 30 27 26 25 24 23 25 27 28 30 32 33 34 34 34 34 34 33 33
54 55 55 54 54 52 51 50 48 45 43 40 39 39 40 41 40 39 35 34 34 33 32 29 28 27 25 24 22 23 24 26 28 30 31 33 34 35 35 36 36 35 34
55 55 55 55 54 52 50 48 46 43 41 38 36 37 39 39 38 36 33 32 32 31 30 28 27 27 26 25 24 24 25 27 29 30 32 33 35 36 37 37 38 37 37
57 56 56 55 54 52 49 47 44 40 37 36 35 35 36 36 34 32 32 32 31 30 29 28 27 27 27 27 27 27 27 28 30 32 33 34 36 38 39 39 39 38 38
57 56 55 53 51 49 47 45 41 37 35 34 34 34 35 33 31 31 30 30 30 29 28 28 28 28 28 28 29 29 28 29 31 32 34 35 36 37 38 39 40 40 39
55 54 53 50 46 44 43 41 38 36 34 33 33 33 32 29 28 28 29 29 28 28 28 28 28 29 30 30 30 31 31 31 31 32 33 34 36 37 39 40 41 42 41
50 49 45 42 41 40 39 38 37 35 33 32 32 31 30 28 27 27 28 28 28 28 29 29 30 30 31 32 32 32 33 32 32 32 33 33 34 37 39 41 42 43 43
39 39 37 36 35 35 34 33 32 31 32 31 31 30 28 26 26 26 27 28 29 30 30 31 32 32 33 34 35 35 35 35 35 34 34 33 34 35 38 39 41 42 41
28 28 28 29 29 30 31 31 29 29 29 30 29 27 25 25 25 25 26 27 29 30 31 32 33 34 35 36 37 38 38 37 37 36 36 35 34 35 36 38 39 40 40
20 21 22 22 23 25 27 27 27 27 28 27 25 23 22 22 24 25 26 27 28 30 31 32 33 34 35 37 38 38 38 38 38 38 37 37 35 35 35 36 38 38 38
13 13 16 18 21 23 23 24 24 24 23 21 21 20 20 21 22 23 25 27 28 29 31 32 33 35 36 37 38 38 38 38 38 38 38 37 36 36 35 35 35 36 36
8 5 6 10 13 15 16 17 18 18 18 18 18 18 20 21 22 23 24 25 27 28 29 31 32 33 35 36 37 37 36 37 37 37 37 37 36 36 35 34 33 32 34
6 4 4 6 8 10 11 13 14 15 16 17 17 18 19 20 21 22 22 24 25 26 27 28 29 31 33 34 34 35 35 36 36 35 35 35 35 35 35 34 33 31 29
7 6 6 7 8 9 10 11 12 13 14 15 16 16 17 17 17 18 19 20 22 23 24 26 27 29 30 32 32 33 33 34 34 34 34 34 34 33 32 32 32 30 27
9 8 8 8 9 9 10 10 10 10 11 11 11 12 13 13 14 15 16 18 19 21 23 25 27 29 30 31 32 33 33 33 33 33 33 33 32 31 30 31 31 31 27
11 10 9 9 8 7 7 7 8 8 8 7 8 9 10 11 12 14 15 17 20 22 24 26 27 29 30 31 32 32 33 33 32 32 32 32 31 30 29 29 28 28 28

GEFSMA_500_meanwind_030.txt.gz
Wind_Speed
28 28 27 27 28 28 27 26 25 24 24 23 23 23 23 23 24 25 27 28 27 26 26 26 25 23 21 20 20 19 19 19 19 18 18 17 16 15 14 13 13 12 12
32 32 31 31 31 31 30 29 28 27 26 26 27 27 27 27 27 28 29 31 32 31 30 30 29 27 25 24 23 22 22 21 21 21 20 20 19 18 17 16 15 14 14
35 36 36 35 35 34 33 32 31 30 30 29 30 30 29 30 30 31 32 33 34 35 35 33 32 31 29 28 27 26 25 24 23 23 23 22 22 21 20 19 18 17 16
37 37 38 39 39 38 36 35 34 34 33 32 32 32 31 32 32 33 34 35 36 37 37 37 35 33 32 30 29 28 28 27 26 25 25 25 24 24 23 21 20 19 18
38 39 39 40 40 39 39 38 37 36 36 35 34 33 32 32 34 35 36 37 37 37 38 37 36 35 33 32 31 31 31 30 30 28 27 27 27 26 25 24 23 21 21
39 40 40 40 39 38 39 39 38 38 37 37 35 33 33 33 35 36 37 38 37 37 37 37 37 36 34 33 32 32 32 32 32 31 30 29 28 28 27 26 25 24 22
39 40 40 40 39 39 41 39 38 38 37 37 36 35 35 35 36 37 39 39 37 36 35 35 36 35 33 32 31 32 32 32 32 31 31 30 30 29 29 28 27 26 24
41 42 42 41 41 41 41 40 39 37 35 35 36 37 35 35 36 38 39 38 35 33 33 33 34 34 33 31 31 31 32 32 32 31 31 31 30 30 29 29 28 27 26
43 44 44 44 44 44 43 42 40 37 37 36 37 38 37 35 35 36 38 36 33 32 32 32 33 33 31 30 31 31 31 31 31 30 30 30 30 30 30 29 29 28 27
40 41 41 41 42 42 41 41 40 40 39 38 38 39 39 38 37 35 35 36 34 32 32 31 33 32 31 30 30 30 30 29 29 29 28 28 28 28 29 29 29 28 28
36 37 38 38 39 40 41 41 42 42 41 41 41 41 41 41 39 37 35 35 33 32 33 33 33 32 31 30 29 29 28 27 27 27 26 25 26 26 27 28 28 28 27
37 38 39 40 41 42 43 44 44 44 44 44 43 43 43 42 41 39 35 34 32 33 33 34 33 32 31 29 28 28 28 27 26 25 25 24 24 25 25 26 27 27 27
41 41 42 43 44 45 45 46 46 46 46 46 45 45 44 43 40 37 34 33 31 30 30 30 32 31 30 29 28 28 28 27 27 26 24 24 24 24 25 26 27 27 28
44 44 45 46 46 46 47 47 46 46 46 46 46 45 43 41 39 35 32 30 30 29 28 29 30 30 29 28 28 27 27 28 27 27 26 26 26 26 26 27 28 29 29
46 46 46 47 47 47 47 46 46 45 46 45 44 42 40 38 35 32 29 28 29 30 30 30 30 29 27 27 26 27 27 28 28 28 27 27 28 28 28 29 30 31 31
45 45 45 45 46 45 44 43 42 42 42 41 39 37 35 33 31 28 27 26 26 27 28 29 29 28 27 26 26 26 27 28 28 28 29 28 28 29 30 30 31 31 32
41 42 42 43 42 41 39 38 37 37 35 34 33 32 30 28 28 26 26 27 27 26 26 27 27 25 25 25 25 26 27 28 29 29 29 29 29 30 30 31 32 32 32
37 37 38 37 36 35 34 34 32 31 30 30 29 27 26 26 25 25 26 26 26 25 24 24 24 24 24 24 25 26 27 29 30 30 31 31 32 32 33 34 34 34 34
33 33 32 31 30 29 29 27 27 26 26 26 26 25 25 24 25 25 25 24 24 23 22 22 22 22 23 24 25 27 28 30 31 32 33 33 34 35 36 36 37 37 37
29 28 27 26 25 24 22 19 20 22 24 24 25 25 24 25 25 24 24 23 23 22 21 20 21 22 23 24 26 28 29 30 32 33 35 36 36 37 38 39 39 39 40
25 24 22 21 20 18 17 17 17 19 21 22 23 23 24 24 24 23 22 21 20 19 19 19 20 21 23 25 26 28 29 31 32 34 35 36 37 38 39 39 40 41 41
22 21 19 18 16 14 14 16 17 19 20 21 22 23 23 23 22 20 18 18 18 17 17 19 20 21 23 24 25 27 28 29 31 32 34 35 36 37 38 39 40 40 41
21 20 18 16 14 13 12 13 13 14 16 18 18 19 18 16 15 14 14 14 15 15 16 17 18 19 20 22 23 25 26 28 30 31 33 34 35 36 37 37 38 39 39
20 19 17 15 13 12 12 12 12 12 12 12 13 12 12 11 11 11 11 11 11 12 13 14 15 16 18 19 21 23 25 28 30 32 33 34 35 36 37 37 38 38 38
19 18 17 15 13 13 12 11 10 10 9 8 8 8 9 9 8 8 8 9 10 10 11 12 13 15 17 19 21 23 25 28 30 31 32 34 34 35 35 35 35 35 35
19 17 16 14 13 11 10 8 7 7 8 8 7 7 6 6 6 6 7 7 8 8 9 11 13 15 17 19 21 24 26 28 30 31 32 33 33 33 33 33 32 32 33

GEFSMA_500_meanwind_036.txt.gz
Wind_Speed
30 30 30 30 31 31 31 32 32 31 30 29 28 28 28 28 27 26 25 25 26 26 26 25 24 23 23 22 22 20 18 18 17 17 18 18 19 19 19 18 17 16 15
34 34 34 34 34 35 36 36 36 36 35 34 33 32 32 31 30 29 28 28 28 28 28 28 28 28 28 28 26 25 23 22 21 20 20 19 20 20 21 20 20 18 17
38 38 38 37 38 39 39 40 40 41 41 39 38 37 36 35 34 32 31 30 31 31 31 31 31 31 31 31 31 30 28 25 24 23 22 21 21 21 22 22 22 21 20
40 40 41 41 42 42 42 43 44 44 44 43 43 42 40 37 36 36 34 33 33 33 33 33 33 33 34 34 34 33 32 29 27 26 24 23 23 23 23 23 23 23 22
41 41 42 42 42 42 43 43 45 44 44 43 42 41 41 41 38 37 36 36 35 35 35 34 35 34 35 36 36 36 36 34 31 28 27 25 25 25 25 25 24 24 24
39 40 41 41 42 43 43 44 43 44 42 40 39 37 36 37 36 35 37 37 37 36 35 35 35 35 36 36 37 37 37 37 34 31 29 27 27 26 27 27 26 26 25
39 40 41 42 43 43 43 44 44 43 42 41 39 37 35 35 33 34 35 36 36 35 36 36 36 35 35 36 37 37 37 37 35 33 31 29 28 27 27 28 28 27 27
38 40 41 42 42 42 42 43 43 43 42 41 39 36 33 32 30 30 32 34 35 35 34 34 34 34 34 35 35 35 35 36 35 33 31 30 28 27 27 28 29 29 28
38 39 40 40 41 41 40 40 40 40 38 36 35 34 31 28 28 28 30 31 32 33 32 32 32 32 32 32 33 33 34 34 34 33 31 30 28 28 28 29 29 30 29
38 38 39 39 40 40 39 37 36 35 34 32 32 32 31 29 28 28 29 31 31 31 31 31 31 31 31 31 30 30 32 33 33 33 31 30 29 28 28 28 29 30 30
38 38 39 39 39 39 38 37 36 35 33 32 32 33 33 32 31 30 30 31 32 32 30 31 31 32 30 29 29 29 31 33 33 33 31 30 29 27 27 27 28 29 29
38 38 39 39 40 40 40 40 39 38 37 36 35 35 35 35 34 33 33 34 34 33 32 32 31 31 30 29 30 29 30 32 32 32 30 29 28 27 27 27 27 28 28
37 37 38 39 40 41 41 42 42 41 40 39 38 38 37 37 37 36 36 36 36 35 33 33 31 30 30 31 32 32 33 33 33 32 30 29 28 28 27 26 26 26 27
36 36 36 37 39 40 41 42 42 42 42 41 41 40 39 39 38 37 36 36 36 36 34 32 30 30 30 31 32 32 33 35 34 33 32 31 30 29 28 27 26 26 27
36 36 35 35 36 37 39 40 41 42 42 42 42 41 40 39 38 37 36 36 35 34 32 30 29 28 28 28 29 31 33 35 35 34 33 32 31 30 30 30 29 29 30
36 36 35 34 34 34 35 37 38 39 40 40 40 39 38 37 36 36 34 33 32 31 29 27 27 26 26 27 28 29 31 32 33 33 32 32 32 31 31 31 31 32 32
37 36 35 34 33 32 32 33 34 35 36 36 36 35 35 34 33 32 31 29 28 27 26 25 25 25 25 25 27 28 29 31 31 31 31 31 31 31 32 32 33 33 34
37 36 35 33 31 30 30 30 30 31 31 31 32 32 31 31 30 28 27 26 25 25 25 25 24 25 24 24 24 24 26 28 30 30 29 29 29 30 31 32 33 34 35
37 36 34 32 30 28 27 26 26 26 27 27 27 27 27 26 26 25 24 24 24 25 25 25 25 24 24 22 22 22 22 24 25 26 27 27 28 29 30 31 33 34 35
36 35 34 32 29 27 26 24 22 21 21 21 21 22 23 23 24 25 24 23 24 23 23 22 23 23 22 21 21 21 20 21 22 23 25 26 27 29 30 32 34 36 37
36 34 33 31 28 26 25 23 21 19 19 18 19 20 21 22 24 24 23 23 22 21 21 21 21 20 19 19 19 19 19 20 21 23 24 26 27 29 31 32 34 36 38
36 33 32 30 27 26 24 22 20 18 16 16 17 18 20 21 22 22 21 21 20 20 21 20 19 18 17 17 17 18 18 19 20 21 23 25 27 29 31 33 36 38 40
36 33 31 29 27 25 23 20 19 17 16 15 16 17 19 20 20 20 19 18 18 18 18 17 16 15 15 16 16 16 16 17 19 20 21 23 25 27 29 31 34 36 39
37 34 31 29 26 24 22 20 18 16 15 13 12 12 13 15 16 16 15 15 16 16 16 14 13 13 14 13 13 13 14 15 17 18 19 21 23 26 29 31 34 37 39
39 34 31 29 26 23 21 19 17 14 12 11 11 10 10 11 12 13 13 14 13 12 12 11 10 10 10 10 11 12 13 14 15 17 19 21 23 26 29 31 34 36 39
40 36 32 29 25 22 20 18 15 12 10 8 8 9 10 11 12 12 11 11 11 10 10 9 9 9 9 9 9 10 11 12 14 15 17 20 22 25 28 31 33 35 37

GEFSMA_500_meanwind_042.txt.gz
Wind_Speed
32 34 35 35 36 37 38 38 37 37 36 35 35 35 35 35 34 35 33 32 30 29 28 27 26 25 24 24 23 22 21 20 18 18 17 16 16 16 16 16 16 15 15
30 31 33 35 37 39 40 41 41 41 41 40 40 40 39 39 39 40 39 38 36 34 32 30 29 28 27 27 26 25 24 24 23 21 21 20 19 19 18 18 18 17 17
28 29 31 32 35 38 40 42 43 44 44 44 43 42 42 41 42 41 42 41 40 39 37 34 33 31 30 29 29 28 28 27 26 26 25 24 23 21 21 20 20 20 19
26 27 28 30 33 34 37 39 42 44 44 44 43 43 41 41 40 39 39 39 41 41 39 37 37 36 34 34 33 31 31 30 29 29 28 27 26 25 23 22 22 22 21
24 25 26 28 31 33 34 36 37 40 42 43 43 41 41 41 39 37 37 38 38 39 39 39 38 38 38 37 35 34 33 32 31 31 31 30 29 29 27 26 25 24 23
21 23 24 27 29 32 33 35 36 38 39 40 41 40 39 39 38 38 37 36 37 38 39 40 39 39 39 38 37 35 34 34 33 33 33 33 32 31 31 29 28 27 26
21 22 24 26 28 30 32 34 36 37 38 39 39 38 38 38 38 36 36 35 35 36 38 40 41 40 40 39 37 36 35 35 34 33 34 34 34 34 34 32 31 29 29
21 23 24 26 28 30 31 34 36 37 37 38 38 38 37 36 34 35 34 33 32 33 35 38 39 39 39 39 37 36 36 35 34 34 34 35 35 36 36 35 34 32 31
22 23 25 27 28 30 31 32 35 36 37 37 38 38 36 33 33 31 31 29 29 29 30 32 34 35 37 37 37 37 35 35 34 34 34 35 36 36 37 36 35 33 32
24 25 26 27 29 29 30 31 33 35 36 37 37 37 35 33 32 30 28 28 28 27 28 29 30 31 33 34 35 35 35 34 33 33 34 34 35 36 37 37 35 34 33
26 26 26 27 29 30 30 30 32 33 35 36 37 37 36 35 33 31 29 29 29 28 27 27 28 29 29 30 32 33 33 32 32 32 32 33 33 35 35 36 35 35 34
27 27 27 29 30 30 30 31 31 32 33 35 36 37 38 36 35 34 33 32 31 30 29 28 29 29 29 29 29 30 31 31 31 30 30 31 31 33 35 35 35 35 35
29 28 28 29 30 30 31 31 31 32 32 33 34 36 37 38 37 37 36 35 34 33 32 31 31 31 31 31 30 30 30 30 31 30 30 31 31 33 34 35 35 35 35
30 29 28 29 30 30 31 31 31 32 31 31 32 33 35 37 38 38 37 36 36 35 34 33 33 33 33 33 32 32 31 31 32 32 31 32 32 34 35 36 36 35 34
31 30 30 29 30 30 30 31 31 32 31 30 31 32 33 34 36 37 37 37 37 37 36 35 34 34 34 33 32 32 32 32 33 33 33 34 33 35 36 36 36 35 34
32 31 31 30 30 30 30 31 31 31 30 30 30 31 31 33 34 35 36 37 37 37 37 36 35 34 33 32 31 32 31 30 31 31 32 34 35 35 36 37 37 37 36
35 33 32 31 31 31 30 30 30 30 30 29 29 29 29 31 32 33 34 35 35 35 35 34 34 34 34 32 30 29 28 29 29 30 31 31 33 33 35 37 37 37 37
37 35 34 33 32 31 31 30 30 30 30 29 28 27 27 28 29 30 31 32 33 33 33 33 33 33 32 31 30 29 28 27 27 28 28 29 30 32 33 35 37 37 37
41 38 37 36 34 33 32 31 30 29 29 28 27 27 26 26 27 28 29 30 30 31 31 31 31 31 30 30 30 30 29 28 27 27 27 28 28 29 31 33 35 36 37
47 44 42 40 38 36 34 32 31 30 29 28 27 27 25 24 24 26 27 28 28 29 29 29 29 29 30 31 30 28 29 27 27 26 25 25 25 25 26 27 29 30 32
53 50 47 44 41 38 36 34 32 31 29 28 27 26 24 23 22 23 23 25 26 26 27 27 28 29 29 29 28 27 26 25 25 24 23 23 22 22 22 23 25 26 28
60 56 52 49 45 42 39 36 34 32 30 28 27 25 24 23 22 21 21 23 25 26 26 28 29 30 29 26 25 25 25 24 23 23 22 21 21 21 21 22 23 25 26
66 62 56 51 47 44 41 38 36 33 31 29 27 25 24 22 22 22 22 23 25 27 28 28 28 28 27 26 24 23 22 21 20 19 19 19 19 19 19 20 21 22 24
69 65 58 52 48 45 42 39 37 34 31 29 27 25 23 22 21 22 22 24 24 24 26 26 25 24 23 22 21 20 19 19 18 17 16 16 16 17 17 18 19 21 23
65 61 56 52 48 46 43 40 37 34 31 29 27 24 23 22 21 21 22 23 23 24 24 23 22 20 19 20 19 18 17 16 14 14 13 14 14 14 15 16 18 20 22
56 54 52 49 46 44 42 40 37 33 30 28 25 24 22 21 20 21 20 20 21 21 21 20 19 18 17 17 16 14 14 13 12 12 12 12 12 12 13 15 17 19 21

GEFSMA_500_meanwind_048.txt.gz
Wind_Speed
27 27 27 28 28 28 28 29 30 31 32 34 34 35 35 34 34 35 34 32 32 32 32 31 30 28 27 25 24 23 22 21 20 19 18 17 17 17 17 17 16 15 15
27 27 27 27 26 26 26 26 27 29 30 32 34 35 35 36 36 35 36 36 35 34 34 34 34 32 31 30 28 27 26 25 24 22 21 20 19 19 19 18 18 18 17
26 26 25 24 24 24 24 24 25 26 28 30 31 32 33 34 35 35 37 38 38 36 35 35 35 34 34 34 32 30 30 28 26 26 25 23 22 21 21 21 21 20 19
25 24 23 22 22 21 21 22 23 25 26 28 29 30 31 32 32 33 34 35 36 36 35 35 35 35 35 35 35 34 32 30 29 28 28 27 26 25 24 24 23 23 22
23 23 22 20 20 20 20 21 22 23 25 27 28 29 30 29 31 31 31 32 33 35 35 34 34 34 33 34 35 36 35 33 31 30 30 29 28 27 27 26 25 25 25
22 21 20 19 19 19 20 21 21 23 24 25 26 27 28 29 29 29 29 29 29 29 30 31 31 33 34 34 36 36 36 36 35 33 32 31 30 30 29 29 28 28 28
22 20 20 19 19 19 20 21 21 23 24 26 26 26 27 27 28 28 28 28 28 27 27 27 29 30 32 33 35 36 37 37 36 34 34 33 31 31 30 31 31 31 30
22 21 21 21 21 21 21 22 22 23 24 26 26 26 26 26 27 27 27 27 27 27 26 26 26 27 28 29 31 34 35 36 35 35 34 34 33 32 32 31 32 32 32
24 24 23 23 23 23 23 23 23 24 24 26 27 27 27 26 26 26 27 26 26 26 25 24 24 25 26 27 27 29 32 34 35 36 35 35 33 32 32 32 32 33 34
26 26 26 26 26 26 26 25 25 25 26 26 27 28 28 28 27 25 26 26 25 25 25 24 24 24 24 25 27 27 29 31 32 34 35 34 34 33 33 32 33 34 35
29 29 29 30 30 30 29 28 28 27 27 27 28 28 29 29 28 26 24 26 26 25 25 25 24 24 24 24 24 25 27 29 31 32 34 34 33 33 33 32 33 34 35
31 32 32 33 33 32 32 31 30 30 29 28 28 28 29 29 28 27 24 24 26 27 27 26 26 26 25 25 24 24 25 26 27 29 31 32 33 33 33 33 33 34 35
34 35 35 35 35 34 34 33 32 32 30 30 29 29 28 28 28 27 26 25 26 27 28 28 28 27 27 26 25 25 24 24 25 27 28 30 31 31 33 32 32 32 32
37 38 37 38 37 37 36 35 34 33 32 31 31 30 29 28 28 27 26 26 25 26 28 29 29 28 28 26 26 25 25 25 25 25 26 28 29 30 31 31 30 30 30
41 41 40 40 39 39 38 37 35 34 33 32 31 30 29 28 28 27 27 26 26 26 26 28 29 29 28 26 26 25 25 25 25 25 26 27 28 29 29 29 28 28 28
46 45 44 42 41 41 40 39 37 36 34 33 32 31 29 28 28 27 27 26 26 25 25 26 28 29 29 27 26 26 26 26 25 25 26 27 27 28 29 29 28 28 27
51 50 48 46 43 42 42 40 39 37 36 34 33 32 30 29 29 28 27 27 26 26 25 25 26 27 27 27 27 26 26 26 25 25 25 26 27 27 28 29 30 28 27
57 54 52 49 47 45 44 42 41 39 37 35 34 32 31 30 29 29 27 26 26 26 25 24 25 26 26 27 26 25 25 25 25 24 24 24 25 26 26 27 28 28 28
61 59 57 54 52 49 47 45 43 41 38 37 35 33 32 31 30 29 28 26 26 25 25 24 24 25 26 26 26 25 25 24 24 25 24 24 25 24 25 25 25 26 27
66 64 62 59 56 53 50 48 46 43 41 39 37 35 33 31 30 29 28 27 26 25 24 24 24 24 25 25 26 25 24 24 24 24 24 24 24 24 24 24 24 24 25
73 70 67 65 61 57 55 52 49 47 44 41 39 37 35 32 31 30 29 27 26 25 24 24 24 24 25 24 24 24 24 24 24 24 24 24 25 24 24 23 22 21 22
78 77 75 72 68 65 62 58 54 51 48 45 43 39 36 34 32 31 30 28 27 26 24 24 23 24 25 25 24 23 23 23 23 24 24 24 23 22 21 20 19 18 19
75 76 76 76 73 70 66 62 58 55 51 47 43 41 38 35 33 32 31 29 28 26 25 24 24 24 24 24 23 22 22 23 23 23 23 22 22 20 19 18 17 17 17
56 61 65 68 69 68 67 65 60 56 53 49 44 41 38 35 33 33 32 30 28 27 25 24 23 22 23 24 23 23 24 23 23 22 21 20 19 18 17 16 16 15 15
37 41 45 50 53 56 58 58 57 55 53 49 44 41 39 36 34 33 32 30 27 26 24 24 23 23 23 23 22 21 22 22 21 20 19 18 17 16 15 14 13 13 12
29 31 32 34 38 42 45 48 50 51 50 47 43 40 38 36 34 33 32 29 27 25 23 23 23 22 22 22 22 21 20 20 19 18 16 16 15 14 13 12 11 10 10

GEFSMA_500_meanwind_054.txt.gz
Wind_Speed
23 23 23 23 23 23 22 21 20 19 19 20 20 21 21 23 24 26 27 28 29 29 28 28 27 26 26 25 25 23 22 21 21 20 18 17 16 16 15 16 15 15 14
23 24 23 23 22 22 21 19 19 18 18 18 18 18 19 20 22 23 24 26 27 29 29 30 30 29 29 29 28 27 26 25 25 24 23 21 20 19 17 17 18 17 17
24 23 22 22 21 20 19 17 17 16 15 16 17 17 18 18 20 21 22 23 25 27 28 29 30 30 31 31 30 30 29 28 28 28 27 25 23 22 21 20 19 19 19
24 23 22 21 20 19 18 17 17 15 15 15 16 16 16 17 18 18 19 21 23 25 26 27 29 29 31 32 32 33 32 31 31 31 31 29 27 25 24 23 22 22 21
24 23 22 21 20 19 18 17 16 15 15 14 14 15 15 15 16 17 18 19 20 22 23 24 26 28 30 32 34 35 34 33 33 33 34 33 31 29 27 26 25 25 24
24 24 24 22 21 20 18 17 16 16 15 14 14 14 15 15 16 17 18 18 19 20 21 22 24 26 28 30 32 34 35 35 34 34 35 35 35 33 31 30 28 28 27
25 24 24 23 22 21 20 19 18 18 17 16 16 15 16 16 16 17 18 19 19 20 21 22 23 25 26 27 29 32 34 35 35 36 37 37 36 36 34 32 31 30 29
25 25 24 24 23 22 22 21 20 20 20 19 18 17 17 18 17 18 18 19 20 20 21 22 23 25 25 26 28 30 31 33 34 36 37 38 38 38 36 35 33 32 32
26 26 26 25 24 24 24 23 22 22 22 22 20 19 19 19 19 20 19 19 20 20 21 22 23 24 25 25 26 27 29 30 32 34 37 38 39 39 38 37 35 34 33
26 25 26 26 26 26 26 25 25 24 24 24 23 22 21 20 20 21 21 21 20 20 21 21 22 23 24 24 25 27 27 29 31 32 34 35 37 38 38 37 36 35 34
27 27 27 27 27 28 28 28 28 27 26 26 25 25 24 23 22 21 22 22 21 20 20 21 22 22 22 23 25 25 26 26 28 30 31 33 35 36 37 37 37 36 35
30 29 28 28 29 30 30 31 30 30 29 28 28 27 26 25 24 23 22 23 23 22 21 21 21 22 22 23 24 24 24 25 26 28 29 31 33 34 35 35 36 36 35
34 33 32 32 32 32 33 33 33 33 32 31 30 29 28 27 26 25 24 23 23 23 22 22 22 21 22 23 24 25 24 24 23 25 27 29 30 32 33 33 35 35 35
41 40 38 38 37 36 37 37 37 37 36 34 33 32 31 30 29 28 26 25 24 23 23 22 22 22 22 22 24 25 25 24 23 23 24 26 27 29 30 31 32 33 34
48 47 46 45 44 43 42 42 41 41 40 38 37 35 34 32 31 30 29 27 25 24 24 23 23 23 23 23 24 25 25 24 24 24 24 24 25 26 27 28 29 30 31
54 53 53 52 51 50 48 47 46 45 44 43 41 39 37 35 34 32 31 29 27 25 24 24 24 24 24 23 24 25 25 25 24 23 23 24 25 25 26 27 28 28 28
59 58 57 57 56 55 53 52 50 49 47 46 44 42 40 38 36 35 33 31 29 27 25 25 24 23 23 23 23 24 24 24 25 24 24 25 24 25 26 26 26 27 27
64 63 62 60 59 58 57 56 54 53 51 49 47 46 43 41 38 37 35 33 31 28 26 25 24 23 22 22 23 23 23 24 24 25 25 25 25 25 26 26 25 26 27
68 67 66 65 63 62 60 59 57 55 53 52 50 48 45 43 40 38 36 34 32 30 27 26 24 23 22 22 22 22 22 23 24 24 24 25 25 25 25 25 24 25 25
68 68 69 68 67 66 64 62 60 58 56 54 53 51 48 46 43 40 38 36 34 31 28 26 25 23 22 21 21 21 22 22 23 23 24 24 24 24 23 23 23 23 24
57 60 63 65 67 67 67 66 64 61 59 57 54 53 51 48 46 42 40 37 35 32 29 27 25 23 22 21 21 21 21 21 21 22 23 23 24 23 22 22 22 22 22
40 44 48 53 58 62 65 66 65 64 62 59 57 54 52 50 48 45 41 39 36 33 30 28 26 24 22 21 20 20 20 20 20 21 22 22 23 23 22 22 21 21 21
29 30 33 37 42 48 55 61 64 64 63 62 59 56 53 50 47 45 43 40 38 34 31 29 27 24 23 21 21 21 21 20 20 20 21 21 22 22 22 21 21 20 20
30 29 28 28 30 34 39 45 52 57 60 62 61 59 56 53 50 47 45 42 39 36 32 30 28 26 24 22 21 21 21 20 20 20 20 21 21 21 21 21 21 20 19
32 31 29 29 28 28 31 34 38 43 49 53 57 59 58 55 53 50 46 42 39 36 33 31 29 27 24 23 22 21 21 21 21 21 21 21 21 21 21 20 20 20 19
34 33 31 30 28 28 28 30 32 35 39 44 49 53 55 55 54 51 48 44 40 37 34 31 30 27 24 23 22 22 21 21 21 21 21 21 20 20 20 20 19 19 18

GEFSMA_500_meanwind_060.txt.gz
Wind_Speed
25 24 24 24 23 22 22 22 21 21 20 20 20 20 20 19 19 19 19 20 20 22 23 23 24 25 25 26 27 27 26 25 23 22 21 20 18 17 17 16 16 15 14
26 25 25 24 24 23 22 22 21 21 20 19 19 19 19 19 18 18 18 19 20 21 22 23 24 24 25 27 28 29 29 28 27 25 24 23 22 20 19 18 18 17 16
27 25 24 24 24 23 23 22 21 20 19 19 19 18 18 18 18 18 18 19 19 20 21 22 23 23 23 25 27 28 30 31 30 29 27 26 25 24 22 21 20 19 19
26 25 25 24 24 24 23 22 21 20 20 19 19 19 18 18 17 17 17 17 18 18 19 21 22 22 23 24 26 28 29 31 32 31 30 29 28 27 26 24 23 22 21
26 25 25 25 25 24 24 23 22 20 20 19 19 19 18 18 17 16 16 16 16 16 17 18 19 20 21 23 25 27 30 32 33 33 32 32 30 30 29 28 27 25 24
26 27 26 26 25 25 24 24 24 22 21 20 20 19 19 18 17 16 15 14 14 14 15 16 17 18 20 21 23 25 27 30 32 33 34 33 33 32 32 31 30 28 27
25 27 27 27 25 25 24 24 24 23 22 22 21 20 20 19 18 17 15 14 14 13 14 15 16 17 19 20 21 23 25 27 30 32 34 34 34 34 35 34 33 32 31
24 25 25 26 25 25 25 25 26 25 25 24 23 22 22 21 20 19 17 16 15 14 13 14 15 17 18 20 21 22 23 25 28 30 32 34 35 36 36 36 36 35 34
25 25 25 25 26 26 27 27 28 27 27 27 26 25 24 23 22 21 19 18 17 16 15 15 15 16 17 18 20 21 22 23 26 28 30 32 34 35 36 37 37 37 36
26 26 27 27 28 28 28 28 30 31 30 29 29 28 27 26 25 24 22 20 19 18 17 16 16 16 16 17 18 19 20 22 23 26 28 29 31 34 35 37 37 38 37
29 29 30 30 30 30 30 31 31 33 33 33 32 31 30 29 28 26 25 23 21 20 19 18 17 17 17 17 18 19 19 21 22 24 27 29 30 31 34 35 36 38 39
35 36 35 34 34 35 34 34 34 35 35 35 34 34 33 32 30 29 27 26 24 22 21 20 19 18 17 17 18 18 19 20 21 23 25 27 29 30 32 35 36 36 37
42 41 41 40 39 38 38 37 38 38 38 38 38 37 36 35 33 31 30 28 26 25 23 22 21 19 18 18 18 19 19 21 21 22 24 26 28 29 30 32 33 34 36
48 47 47 46 45 44 42 42 42 42 42 41 41 41 40 38 37 35 32 30 29 27 25 24 22 21 20 19 19 19 20 21 22 23 23 24 26 27 29 30 31 32 33
53 53 53 52 51 50 49 48 48 47 46 45 44 44 43 42 40 38 36 33 31 29 28 26 24 23 21 21 20 20 20 20 21 22 23 24 24 25 26 28 30 31 32
58 58 58 58 57 56 56 55 54 53 52 50 49 48 47 46 44 42 40 36 34 31 29 29 27 25 23 22 21 21 20 20 20 21 22 23 24 24 25 26 28 29 30
60 61 62 62 62 62 61 60 59 58 57 56 55 53 51 50 48 46 43 40 37 34 31 30 29 27 25 23 22 21 21 21 21 21 22 23 23 23 23 23 24 25 26
56 59 62 63 64 65 65 65 64 63 62 60 59 58 56 54 52 50 47 43 40 37 34 32 31 29 26 24 23 22 21 21 21 21 22 23 23 23 23 22 22 23 25
48 50 54 59 62 65 66 67 68 68 67 65 63 61 59 57 55 53 50 47 43 40 36 34 32 31 28 26 24 23 22 21 21 21 21 22 23 23 23 23 23 23 24
41 41 44 48 53 58 63 67 69 70 70 70 68 65 63 60 57 55 53 50 47 43 39 36 34 32 29 26 25 23 22 21 21 21 21 21 23 23 23 23 24 24 25
38 37 37 37 40 44 49 55 62 67 70 71 71 69 66 63 60 57 55 53 50 46 42 38 35 33 30 28 26 24 23 22 21 21 21 21 22 23 23 22 23 24 24
38 36 35 34 35 35 38 41 46 53 60 65 69 71 69 66 62 59 56 54 51 48 45 41 37 34 31 29 27 25 23 22 21 21 21 21 22 22 23 23 23 23 23
40 38 36 35 33 32 32 33 36 40 44 50 57 63 67 67 64 61 58 55 51 48 46 43 39 35 33 31 28 26 24 23 22 22 22 21 21 22 22 23 23 23 23
40 39 37 36 35 33 32 31 31 33 36 41 46 52 58 62 64 63 60 57 53 49 47 44 40 37 34 32 30 27 25 24 22 22 21 21 21 22 22 22 23 23 23
40 39 38 38 36 34 33 32 30 29 30 33 37 42 47 53 58 61 60 58 55 51 48 45 42 39 36 33 31 28 26 24 22 22 21 21 21 21 21 22 22 22 22
38 38 38 38 37 36 34 32 31 29 28 29 31 35 40 45 50 56 58 57 55 52 49 46 43 40 38 34 31 29 26 25 23 22 22 21 22 21 21 20 21 21 21

GEFSMA_500_meanwind_066.txt.gz
Wind_Speed
38 38 37 35 33 31 29 26 24 24 23 22 21 21 20 20 20 19 18 18 18 18 18 18 19 20 21 21 22 23 23 25 26 25 24 22 21 20 19 18 17 17 16
38 39 38 36 33 32 30 28 26 25 24 23 23 22 21 21 20 19 18 18 19 19 18 18 19 19 20 21 21 22 23 24 26 26 26 26 24 22 21 20 19 18 18
38 39 39 37 35 33 32 30 29 27 25 24 24 23 22 21 20 19 19 19 18 18 18 18 19 19 20 20 21 22 22 23 25 26 27 27 27 26 24 22 21 20 19
38 39 39 38 36 34 32 31 30 29 27 26 24 24 23 22 21 20 20 19 18 17 17 17 18 18 18 20 21 21 22 22 23 25 27 28 29 29 28 26 24 23 21
33 36 37 37 37 35 32 31 29 30 29 27 25 24 23 22 22 21 20 19 18 17 17 17 17 17 18 19 20 20 21 22 23 24 26 28 29 30 30 29 27 26 25
30 32 33 33 35 35 32 31 30 30 29 28 26 25 25 24 23 22 22 20 19 18 18 17 16 16 16 18 19 18 20 21 22 23 25 27 30 31 32 31 29 28 27
28 27 29 30 31 32 31 31 30 30 30 29 27 26 26 26 25 24 23 22 20 20 19 17 16 15 15 16 17 17 18 20 21 22 23 25 28 31 32 32 31 31 30
27 27 28 29 30 29 29 31 31 30 29 29 29 28 28 27 27 26 25 24 23 21 20 19 17 16 15 15 15 16 17 18 20 21 22 23 25 27 30 32 33 32 32
27 27 28 29 29 29 29 30 31 31 31 31 31 30 30 30 29 29 28 27 25 24 22 20 18 17 15 14 15 16 17 17 18 19 20 21 23 25 27 30 31 33 33
29 29 29 29 30 30 31 31 31 30 30 31 31 31 32 31 31 31 30 29 27 26 24 22 20 18 17 15 14 14 15 16 17 19 20 20 22 24 26 28 30 32 34
34 33 33 33 32 33 32 32 32 31 31 32 32 32 33 33 33 33 33 32 30 28 27 25 23 21 19 17 16 14 14 15 17 18 19 20 21 23 25 26 29 31 33
37 38 38 37 37 37 36 35 35 35 35 35 35 36 36 36 35 35 35 35 33 32 30 28 26 24 22 20 18 16 15 16 16 17 18 20 20 22 24 26 28 30 32
42 42 42 42 42 42 41 40 40 39 39 39 38 39 39 39 39 38 38 38 37 35 33 31 29 27 25 22 20 19 17 17 17 17 18 19 20 21 23 24 26 29 30
46 46 46 46 47 47 47 47 46 44 43 43 43 42 42 42 41 42 42 41 40 38 37 35 32 30 28 26 23 21 20 19 18 18 19 20 21 21 22 24 26 28 29
49 49 50 50 52 53 53 54 53 52 50 49 47 46 47 46 45 45 45 44 43 41 40 38 36 33 31 29 26 24 22 21 20 19 20 20 21 22 23 24 25 27 29
50 51 53 53 54 56 57 58 59 59 57 56 54 53 51 50 49 48 48 47 46 45 43 41 39 36 34 31 29 26 25 23 22 21 21 21 21 22 23 25 26 27 27
51 52 54 55 56 58 60 61 62 63 63 62 60 59 57 54 53 52 51 50 49 48 46 44 43 40 37 34 31 29 27 25 24 23 22 22 22 22 22 24 25 25 25
53 54 54 56 58 60 61 63 64 65 66 66 65 65 63 60 58 56 55 54 53 51 49 48 45 43 40 37 34 32 29 28 26 24 23 22 22 22 22 22 24 24 25
54 54 54 55 57 59 61 63 65 66 68 69 69 68 67 66 64 61 60 58 56 54 53 51 48 46 43 41 38 35 32 30 28 27 25 23 23 23 22 22 23 23 24
52 52 53 53 54 56 57 59 62 64 67 68 69 69 69 69 69 68 66 64 62 59 56 54 52 50 47 43 40 37 35 32 30 28 26 25 23 23 23 22 22 23 23
51 51 51 51 51 51 52 53 55 58 61 63 65 67 68 68 69 70 68 67 67 64 60 57 55 52 49 46 43 40 37 34 32 30 27 25 24 23 23 22 22 22 22
49 48 48 48 48 49 49 49 50 51 53 55 58 62 65 66 66 67 68 67 67 67 64 61 58 54 51 48 45 42 39 36 33 31 29 26 24 24 23 23 22 21 21
46 46 46 46 47 48 49 48 47 47 47 47 49 52 57 61 63 65 66 67 67 67 65 62 60 56 54 51 48 44 41 38 36 33 30 27 25 24 23 22 21 21 20
43 43 44 44 44 45 46 46 46 46 44 43 43 44 46 51 55 58 62 62 62 66 66 63 59 56 55 53 50 47 44 40 37 34 31 28 26 24 23 23 22 21 20
39 39 40 40 41 41 43 44 44 44 43 41 40 40 41 42 46 49 52 55 57 60 63 64 62 58 54 53 51 48 45 41 38 35 32 29 27 25 24 23 22 21 21
34 34 35 36 37 38 40 41 42 43 41 40 39 38 38 38 40 42 44 48 52 55 59 60 60 58 55 52 50 48 45 42 39 35 32 30 28 26 24 23 22 21 21

GEFSMA_500_meanwind_072.txt.gz
Wind_Speed
36 36 36 36 35 34 33 32 31 30 29 27 27 26 26 27 25 24 22 20 19 20 19 19 18 17 18 18 18 19 18 18 18 19 19 19 19 18 17 16 15 15 14
35 37 38 37 36 36 35 34 33 32 30 29 27 27 27 27 26 24 22 21 20 20 20 20 19 18 18 18 18 18 19 19 19 19 20 21 21 22 20 19 17 16 15
37 37 37 37 37 37 37 35 33 32 31 29 28 27 27 27 25 24 23 21 21 21 20 20 19 19 18 18 18 18 19 18 19 19 20 21 22 24 24 23 21 19 17
37 38 36 36 37 35 34 34 33 33 31 30 29 28 27 26 25 25 24 23 22 21 21 20 20 19 19 18 18 17 17 18 18 19 20 20 21 23 25 25 25 23 21
39 38 36 36 35 34 34 33 33 32 32 31 29 28 28 27 25 26 25 23 23 23 22 21 20 20 19 18 17 17 17 17 18 19 20 21 21 23 25 26 26 26 24
38 38 36 35 32 32 31 31 31 30 31 30 30 29 29 28 27 26 26 25 24 24 23 21 20 20 19 18 17 16 16 16 17 18 19 20 20 21 23 26 26 26 27
37 36 35 33 31 30 28 29 31 31 30 31 31 30 29 28 28 27 27 26 26 26 24 23 22 21 20 19 17 16 15 16 16 16 17 18 19 20 22 24 26 26 26
37 35 34 33 32 30 29 30 31 32 32 32 32 31 30 28 29 29 28 29 28 27 26 25 23 22 21 20 18 17 15 16 15 15 16 17 17 19 20 23 25 26 27
37 36 35 34 33 31 30 31 31 32 33 32 32 32 31 29 30 30 30 30 29 29 28 27 25 24 23 20 19 17 16 15 15 15 15 16 17 18 19 20 22 24 26
38 38 37 35 34 32 32 31 31 31 33 33 33 33 32 31 31 31 32 32 32 31 30 29 28 25 24 21 19 18 17 16 15 15 14 15 16 16 17 18 20 22 24
40 40 39 38 37 36 35 33 33 33 34 34 34 34 34 34 33 33 33 34 34 33 32 31 30 28 26 23 21 19 18 17 15 14 14 13 14 15 16 17 18 20 22
42 41 41 40 40 39 38 36 35 34 34 35 34 35 36 36 36 35 35 35 35 35 34 34 32 31 29 26 23 21 19 18 16 15 14 13 14 15 15 16 17 19 20
44 44 42 42 42 41 41 40 40 39 38 38 38 37 38 38 38 38 37 37 37 36 36 35 35 33 31 28 26 24 22 20 18 17 16 15 14 14 15 16 17 17 19
45 45 44 44 44 44 44 44 44 44 43 42 41 41 40 40 40 40 39 38 38 37 37 37 36 36 34 31 29 27 25 23 21 19 18 16 15 15 15 15 16 17 18
45 45 45 45 45 46 46 46 47 48 48 46 46 45 44 43 42 43 42 40 40 39 39 38 38 38 37 35 33 31 29 26 24 22 20 18 17 16 16 16 17 17 18
47 47 47 46 46 46 47 48 49 49 50 51 50 49 48 47 45 45 44 42 42 42 41 39 39 39 38 37 35 34 32 30 27 25 23 21 20 18 18 18 18 18 18
48 49 49 49 49 49 49 49 50 51 52 52 53 53 52 51 51 49 48 46 45 43 43 42 41 40 39 38 38 37 35 33 31 28 26 24 22 21 20 19 19 19 19
49 49 50 50 50 50 50 50 51 52 53 54 55 55 55 56 55 54 53 51 49 47 46 45 44 43 41 40 40 39 38 36 34 31 29 27 25 23 21 21 20 20 20
50 50 50 51 51 51 52 53 53 53 54 55 57 58 58 58 58 57 56 55 52 50 48 47 46 46 44 43 42 41 40 39 37 34 32 29 27 25 23 22 21 20 20
50 51 51 52 52 52 52 54 55 55 55 57 58 59 59 60 60 60 59 57 56 54 51 49 49 48 48 46 45 43 42 40 39 37 35 32 29 27 25 24 23 22 21
49 50 50 51 51 53 53 53 55 56 57 57 59 60 62 62 62 62 61 60 59 58 56 54 52 51 50 49 47 45 44 43 41 39 37 34 32 30 28 26 24 23 22
48 48 47 48 49 50 51 51 52 54 55 55 57 59 61 64 64 63 62 62 60 59 58 57 55 54 52 51 49 47 46 45 43 41 38 36 34 32 30 28 26 24 23
46 45 44 45 45 46 47 47 48 49 50 51 52 53 56 60 62 63 63 63 62 61 60 58 57 57 55 53 51 50 48 46 44 42 40 38 36 33 32 29 27 26 24
43 42 42 41 41 42 42 43 44 45 46 46 48 49 50 53 55 57 59 60 60 60 59 58 57 57 56 54 51 50 49 48 46 45 42 39 37 35 33 31 28 27 25
41 39 38 37 36 36 37 38 40 40 41 42 44 45 45 46 47 50 52 54 56 57 57 57 56 57 56 55 52 50 48 47 46 45 43 41 39 36 34 32 30 28 26
38 36 34 32 31 31 31 32 34 35 37 37 38 40 41 42 42 42 45 47 50 52 54 54 55 55 55 55 54 52 50 48 45 44 43 42 40 38 35 33 31 29 27